Location: Makanda
(37.6176°N, 89.2090°W)
Time: 04:11:17
(UTC+00:00)

Okean 1-7 - Pass Details

Date: 23 September 2019
Orbit: 590 x 620 km, 82.5° (Epoch: 18 October)

Event Time Altitude Azimuth Distance (km) Brightness Sun altitude
Exits shadow 10:41:26 13° 220° (SW) 1,772 4.9 -13.4°
Maximum altitude 10:44:50 34° 282° (WNW) 1,027 3.7 -12.7°
Drops below altitude 10° 10:48:50 10° 348° (NNW) 1,985 5.6 -12.0°
Sets 10:51:15 0° 357° (N) 2,891 6.6 -11.5°
